N4NVD-13 Weather Reports


Display with metric or nautical units.
time (UTC)temp
F
wind
direction
speed
MPH
gust
MPH
rain 1hr
in
rain 24hr
in
rain mn
in
humidity
%
barometer
mb
20260510222811 87 90 2.0 5.0 0.00 0.00 0.00 70 1010.9
20260510222308 87 192 0.0 7.0 0.00 0.00 0.00 69 1010.9
20260510221803 90 87 4.0 5.0 0.00 0.00 0.00 69 1011.1
20260510221300 89 114 2.0 6.0 0.00 0.00 0.00 70 1011.2
20260510220757 88 85 2.0 5.0 0.00 0.00 0.00 69 1011.2
20260510220253 89 84 2.0 5.0 0.00 0.00 0.00 69 1011.3
20260510215749 88 74 4.0 4.0 0.00 0.00 0.00 72 1011.3
20260510215247 88 69 1.0 5.0 0.00 0.00 0.00 69 1011.5
20260510214744 89 90 1.0 6.0 0.00 0.00 0.00 68 1011.4
20260510214241 88 75 1.0 5.0 0.00 0.00 0.00 72 1011.6
20260510213738 87 74 0.0 4.0 0.00 0.00 0.00 73 1011.6
20260510213234 87 102 2.0 5.0 0.00 0.00 0.00 72 1011.8
20260510212731 87 50 3.0 7.0 0.00 0.00 0.00 73 1011.8
20260510212228 87 68 2.0 6.0 0.00 0.00 0.00 71 1011.7
20260510211725 88 80 4.0 8.0 0.00 0.00 0.00 69 1012.0
20260510211220 88 26 4.0 6.0 0.00 0.00 0.00 69 1012.0
20260510210716 87 64 6.0 8.0 0.00 0.00 0.00 70 1012.1
20260510210211 89 73 3.0 4.0 0.00 0.00 0.00 72 1012.2
20260510205706 90 64 4.0 4.0 0.00 0.00 0.00 67 1012.1
20260510205201 91 151 1.0 3.0 0.00 0.00 0.00 65 1012.2
20260510204657 91 207 4.0 6.0 0.00 0.00 0.00 68 1012.4
20260510204154 90 180 2.0 5.0 0.00 0.00 0.00 67 1012.1
20260510203651 90 168 2.0 6.0 0.00 0.00 0.00 68 1012.2
20260510203149 89 166 3.0 3.0 0.00 0.00 0.00 71 1012.3
20260510202648 88 220 0.0 5.0 0.00 0.00 0.00 71 1012.5
20260510202143 88 96 2.0 5.0 0.00 0.00 0.00 71 1012.2
20260510201641 89 97 0.0 4.0 0.00 0.00 0.00 70 1012.4
20260510201138 88 156 0.0 4.0 0.00 0.00 0.00 73 1012.3
20260510200634 87 143 0.0 5.0 0.00 0.00 0.00 72 1012.1
20260510200132 88 101 4.0 7.0 0.00 0.00 0.00 73 1012.2
20260510195629 88 115 4.0 5.0 0.00 0.00 0.00 72 1012.3
20260510195126 89 180 4.0 6.0 0.00 0.00 0.00 70 1012.3
20260510194625 89 65 0.0 3.0 0.00 0.00 0.00 71 1012.3
20260510194122 89 191 2.0 5.0 0.00 0.00 0.00 72 1012.5
20260510193617 87 159 4.0 9.0 0.00 0.00 0.00 74 1012.4
20260510193113 88 152 0.0 5.0 0.00 0.00 0.00 73 1012.5
20260510192608 87 185 2.0 6.0 0.00 0.00 0.00 74 1012.4
20260510192103 87 146 0.0 9.0 0.00 0.00 0.00 76 1012.4
20260510191600 86 102 3.0 7.0 0.00 0.00 0.00 74 1012.3
20260510191057 86 109 4.0 11.0 0.00 0.00 0.00 74 1012.6
20260510190554 87 150 3.0 6.0 0.00 0.00 0.00 72 1012.3
20260510190051 88 168 3.0 8.0 0.00 0.00 0.00 72 1012.2
20260510185547 87 209 2.0 7.0 0.00 0.00 0.00 75 1012.3
20260510185040 88 112 3.0 6.0 0.00 0.00 0.00 75 1012.0
20260510184537 86 107 0.0 7.0 0.00 0.00 0.00 76 1012.0
20260510184032 86 172 2.0 9.0 0.00 0.00 0.00 77 1012.2
20260510183528 85 218 4.0 10.0 0.00 0.00 0.00 77 1012.5
20260510183023 85 215 1.0 6.0 0.00 0.00 0.00 80 1012.4
20260510182521 85 149 5.0 8.0 0.00 0.00 0.00 78 1012.3
20260510182021 85 129 5.0 8.0 0.00 0.00 0.00 77 1012.5
20260510181519 86 209 0.0 7.0 0.00 0.00 0.00 78 1012.6
20260510181015 86 201 3.0 11.0 0.00 0.00 0.00 77 1012.7
20260510180512 86 86 3.0 8.0 0.00 0.00 0.00 78 1012.5
20260510180010 85 119 2.0 9.0 0.00 0.00 0.00 78 1012.9
20260510175505 84 212 2.0 7.0 0.00 0.00 0.00 80 1012.7
20260510175001 85 216 0.0 6.0 0.00 0.00 0.00 81 1013.0
20260510174459 84 208 6.0 7.0 0.00 0.00 0.00 79 1013.0
20260510173955 85 100 0.0 8.0 0.00 0.00 0.00 77 1013.1
20260510173451 85 160 4.0 8.0 0.00 0.00 0.00 79 1013.4
20260510172948 83 213 4.0 10.0 0.00 0.00 0.00 81 1013.3
20260510172444 83 208 5.0 6.0 0.00 0.00 0.00 80 1013.3
20260510171940 83 236 2.0 8.0 0.00 0.00 0.00 82 1013.4
20260510171437 84 210 2.0 9.0 0.00 0.00 0.00 80 1013.3
20260510170934 84 134 5.0 5.0 0.00 0.00 0.00 80 1013.4
20260510170431 84 160 1.0 5.0 0.00 0.00 0.00 79 1013.6
20260510165926 82 151 2.0 7.0 0.00 0.00 0.00 81 1013.4
20260510165423 82 180 1.0 7.0 0.00 0.00 0.00 82 1013.5
20260510164919 84 155 3.0 5.0 0.00 0.00 0.00 79 1013.8
20260510164416 82 126 1.0 7.0 0.00 0.00 0.00 82 1013.8
20260510163911 83 101 4.0 8.0 0.00 0.00 0.00 82 1013.8
20260510163407 83 123 2.0 7.0 0.00 0.00 0.00 82 1013.9
20260510162901 82 152 4.0 7.0 0.00 0.00 0.00 82 1014.1
20260510162400 81 149 0.0 7.0 0.00 0.00 0.00 85 1013.9
20260510161855 80 228 2.0 7.0 0.00 0.00 0.00 87 1014.0
20260510161351 80 246 5.0 8.0 0.00 0.00 0.00 86 1014.0
20260510160848 81 158 3.0 9.0 0.00 0.00 0.00 86 1014.1
20260510160344 80 126 3.0 4.0 0.00 0.00 0.00 87 1013.9
20260510155838 79 77 2.0 7.0 0.00 0.00 0.00 88 1014.0
20260510155336 79 119 2.0 5.0 0.00 0.00 0.00 88 1014.2
20260510154832 80 156 4.0 5.0 0.00 0.00 0.00 87 1014.0
20260510154327 79 109 3.0 6.0 0.00 0.00 0.00 88 1014.2
20260510153822 79 111 4.0 6.0 0.00 0.00 0.00 88 1014.0
20260510153318 79 90 0.0 4.0 0.00 0.00 0.00 89 1014.1
20260510152815 79 141 4.0 7.0 0.00 0.00 0.00 87 1014.1
20260510152312 79 76 6.0 6.0 0.00 0.00 0.00 89 1014.1
20260510151809 79 148 0.0 4.0 0.00 0.00 0.00 88 1014.1
20260510151307 79 146 3.0 5.0 0.00 0.00 0.00 88 1013.9
20260510150802 79 77 2.0 3.0 0.00 0.00 0.00 88 1013.7
20260510150258 78 141 0.0 5.0 0.00 0.00 0.00 90 1014.0
20260510145754 79 108 2.0 9.0 0.00 0.00 0.00 88 1013.9
20260510145251 78 151 4.0 6.0 0.00 0.00 0.00 88 1014.1
20260510144747 78 114 2.0 5.0 0.00 0.00 0.00 89 1014.1
20260510144243 78 90 2.0 4.0 0.00 0.00 0.00 90 1014.2
20260510143738 78 47 3.0 6.0 0.00 0.00 0.00 90 1014.1
20260510143235 77 26 3.0 4.0 0.00 0.00 0.00 92 1014.0
20260510142731 76 65 6.0 9.0 0.00 0.00 0.00 92 1014.2
20260510142228 75 90 0.0 8.0 0.00 0.00 0.00 94 1014.5
20260510141725 75 103 1.0 5.0 0.00 0.00 0.00 96 1014.3
20260510141224 74 117 3.0 7.0 0.00 0.00 0.00 96 1014.3
20260510140720 73 87 3.0 7.0 0.00 0.00 0.00 97 1014.4
20260510140220 73 77 4.0 4.0 0.00 0.00 0.00 98 1014.3
20260510135714 72 25 3.0 6.0 0.00 0.00 0.00 98 1014.2
20260510135210 72 94 3.0 9.0 0.00 0.00 0.00 98 1014.0
20260510134708 72 85 4.0 7.0 0.00 0.00 0.00 99 1014.0
20260510134205 71 113 5.0 9.0 0.00 0.00 0.00 99 1014.1
20260510133700 71 90 5.0 7.0 0.00 0.00 0.00 99 1013.9
20260510133156 71 95 3.0 7.0 0.00 0.00 0.00 99 1013.9
20260510132653 71 97 4.0 10.0 0.00 0.00 0.00 99 1013.5
20260510132150 71 105 4.0 10.0 0.00 0.00 0.00 99 1013.6
20260510131648 71 90 1.0 13.0 0.00 0.00 0.00 99 1013.6
20260510131145 71 28 2.0 6.0 0.00 0.00 0.00 98 1013.4
20260510130641 72 63 4.0 6.0 0.00 0.00 0.00 97 1013.6
20260510130139 72 60 3.0 4.0 0.00 0.00 0.00 97 1013.0
20260510125635 71 73 3.0 6.0 0.00 0.00 0.00 97 1013.1
20260510125131 71 71 0.0 4.0 0.00 0.00 0.00 98 1012.9
20260510124628 71 95 2.0 5.0 0.00 0.00 0.00 99 1012.9
20260510124125 70 82 3.0 4.0 0.00 0.00 0.00 99 1012.9
20260510123620 69 98 1.0 6.0 0.00 0.00 0.00 99 1012.9
20260510123117 69 36 2.0 4.0 0.00 0.00 0.00 99 1012.5
20260510122612 69 65 2.0 2.0 0.00 0.00 0.00 99 1012.6
20260510122108 68 54 0.0 2.0 0.00 0.00 0.00 99 1012.4
20260510121606 67 83 1.0 2.0 0.00 0.00 0.00 99 1012.1
20260510121103 66 18 0.0 2.0 0.00 0.00 0.00 99 1011.9
20260510120601 66 66 0.0 0.0 0.00 0.00 0.00 99 1012.1
20260510120055 66 66 0.0 0.0 0.00 0.00 0.00 99 1011.9
20260510115552 65 66 0.0 0.0 0.00 0.00 0.00 99 1011.6
20260510115050 65 66 0.0 1.0 0.00 0.00 0.00 99 1011.7
20260510114545 65 90 0.0 0.0 0.00 0.00 0.00 99 1011.5
20260510114042 65 120 0.0 0.0 0.00 0.00 0.00 99 1011.5
20260510113537 65 120 0.0 0.0 0.00 0.00 0.00 99 1011.5
20260510113035 66 111 0.0 1.0 0.00 0.00 0.00 99 1011.5
20260510112531 66 84 0.0 1.0 0.00 0.00 0.00 99 1011.7
20260510112028 66 41 0.0 3.0 0.00 0.00 0.00 99 1011.3
20260510111524 67 90 2.0 3.0 0.00 0.00 0.00 99 1011.5
20260510111020 66 60 2.0 3.0 0.00 0.00 0.00 99 1011.4
20260510110516 67 53 0.0 2.0 0.00 0.00 0.00 99 1011.2
20260510110013 67 9 2.0 3.0 0.00 0.00 0.00 99 1011.1
20260510105508 67 15 0.0 2.0 0.00 0.00 0.00 99 1011.0
20260510105003 67 23 2.0 2.0 0.00 0.00 0.00 99 1010.9
20260510104500 67 0 1.0 2.0 0.00 0.00 0.00 99 1010.6
20260510103956 67 352 0.0 1.0 0.00 0.00 0.00 99 1010.4
20260510103454 67 14 0.0 1.0 0.00 0.00 0.00 99 1010.5
20260510102949 68 283 0.0 1.0 0.00 0.00 0.00 99 1010.2
20260510102445 68 157 0.0 2.0 0.00 0.00 0.00 99 1010.2
20260510101942 68 235 0.0 2.0 0.00 0.00 0.00 99 1009.8
20260510101440 68 225 0.0 3.0 0.00 0.00 0.00 99 1010.2
20260510100938 68 119 2.0 2.0 0.00 0.00 0.00 99 1010.0
20260510100434 68 41 0.0 2.0 0.00 0.00 0.00 99 1010.0
20260510095930 68 81 0.0 1.0 0.00 0.00 0.00 99 1009.9
20260510095426 68 112 0.0 2.0 0.00 0.00 0.00 99 1010.0
20260510094925 68 203 0.0 0.0 0.00 0.00 0.00 98 1009.9
20260510094420 68 203 0.0 1.0 0.00 0.00 0.00 98 1010.0
20260510093917 69 254 0.0 0.0 0.00 0.00 0.00 98 1009.8
20260510093412 69 241 0.0 2.0 0.00 0.00 0.00 98 1009.9
20260510092910 69 106 0.0 2.0 0.00 0.00 0.00 97 1010.0
20260510092407 69 99 0.0 1.0 0.00 0.00 0.00 97 1010.0
20260510091907 69 233 2.0 2.0 0.00 0.00 0.00 97 1009.8
20260510091404 70 135 2.0 3.0 0.00 0.00 0.00 96 1009.8
20260510090901 70 120 0.0 3.0 0.00 0.00 0.00 96 1009.9
20260510090357 70 240 0.0 2.0 0.00 0.00 0.00 96 1009.8
20260510085853 70 239 2.0 8.0 0.00 0.00 0.00 95 1009.9
20260510085348 70 210 2.0 5.0 0.00 0.00 0.00 95 1009.8
20260510084844 70 156 4.0 5.0 0.00 0.00 0.00 95 1009.7
20260510084342 70 222 3.0 5.0 0.00 0.00 0.00 95 1009.8
20260510083838 71 212 3.0 4.0 0.00 0.00 0.00 94 1010.0
20260510083335 71 236 3.0 5.0 0.00 0.00 0.00 94 1010.1
20260510082830 71 197 0.0 3.0 0.00 0.00 0.00 94 1010.2
20260510082327 71 257 0.0 5.0 0.00 0.00 0.00 94 1010.0
20260510081826 71 221 2.0 4.0 0.00 0.00 0.00 93 1010.0
20260510081317 71 195 2.0 4.0 0.00 0.00 0.00 93 1010.1
20260510080813 71 238 0.0 6.0 0.00 0.00 0.00 93 1010.2
20260510080308 71 199 3.0 6.0 0.00 0.00 0.00 93 1010.2
20260510075805 71 235 4.0 7.0 0.00 0.00 0.00 92 1010.3
20260510075306 72 173 3.0 7.0 0.00 0.00 0.00 92 1010.1
20260510074759 71 200 1.0 3.0 0.00 0.00 0.00 92 1010.2
20260510074256 71 180 1.0 5.0 0.00 0.00 0.00 92 1010.4
20260510073752 72 183 3.0 3.0 0.00 0.00 0.00 92 1010.3
20260510073248 72 152 4.0 6.0 0.00 0.00 0.00 91 1010.3
20260510072744 72 206 2.0 8.0 0.00 0.00 0.00 91 1010.1
20260510072241 72 204 0.0 7.0 0.00 0.00 0.00 91 1010.2
20260510071737 72 180 2.0 6.0 0.00 0.00 0.00 91 1010.1
20260510071234 72 188 0.0 8.0 0.00 0.00 0.00 91 1010.4
20260510070733 72 180 1.0 7.0 0.00 0.00 0.00 90 1010.1
20260510070229 72 174 3.0 8.0 0.00 0.00 0.00 90 1010.0
20260510065724 72 152 2.0 5.0 0.00 0.00 0.00 90 1010.2
20260510065221 73 165 4.0 6.0 0.00 0.00 0.00 90 1010.3
20260510064717 73 206 0.0 5.0 0.00 0.00 0.00 89 1010.4
20260510064215 73 165 2.0 4.0 0.00 0.00 0.00 89 1010.4
20260510063711 73 180 1.0 7.0 0.00 0.00 0.00 89 1010.5
20260510063207 73 140 6.0 8.0 0.00 0.00 0.00 89 1010.4
20260510062704 73 144 0.0 6.0 0.00 0.00 0.00 89 1010.5
20260510062201 73 75 1.0 4.0 0.00 0.00 0.00 89 1010.3
20260510061655 73 263 0.0 5.0 0.00 0.00 0.00 89 1010.5
20260510061153 73 145 3.0 5.0 0.00 0.00 0.00 89 1010.4
20260510060649 72 110 0.0 5.0 0.00 0.00 0.00 89 1010.5
20260510060146 72 97 0.0 4.0 0.00 0.00 0.00 90 1010.6
20260510055642 72 147 3.0 3.0 0.00 0.00 0.00 90 1010.5
20260510055140 72 114 3.0 3.0 0.00 0.00 0.00 90 1010.3
20260510054636 71 84 0.0 1.0 0.00 0.00 0.00 91 1010.6
20260510054132 71 69 0.0 3.0 0.00 0.00 0.00 91 1010.4
20260510053631 71 45 0.0 2.0 0.00 0.00 0.00 91 1010.4
20260510053128 71 120 0.0 2.0 0.00 0.00 0.00 91 1010.4
20260510052623 71 90 0.0 2.0 0.00 0.00 0.00 91 1010.5
20260510052119 72 75 0.0 2.0 0.00 0.00 0.00 91 1010.5
20260510051609 72 105 0.0 2.0 0.00 0.00 0.00 91 1010.5
20260510051107 72 159 0.0 4.0 0.00 0.00 0.00 91 1010.3
20260510050604 71 99 0.0 2.0 0.00 0.00 0.00 92 1010.3
20260510050100 71 355 0.0 3.0 0.00 0.00 0.00 92 1010.4
20260510045558 71 106 3.0 6.0 0.00 0.00 0.00 94 1010.3
20260510045054 71 112 3.0 6.0 0.00 0.00 0.00 96 1010.3
20260510044550 69 106 0.0 6.0 0.00 0.00 0.00 99 1010.4
20260510044048 68 132 2.0 3.0 0.00 0.00 0.00 99 1010.6
20260510043543 69 82 0.0 1.0 0.00 0.00 0.00 99 1010.4
20260510043039 69 0 0.0 0.0 0.00 0.00 0.00 99 1010.1
20260510042533 69 0 0.0 1.0 0.00 0.00 0.00 99 1010.1
20260510042028 69 66 0.0 0.0 0.00 0.00 0.00 99 1010.4
20260510041526 69 69 0.0 0.0 0.00 0.00 0.00 99 1010.4
20260510041023 69 352 0.0 2.0 0.00 0.00 0.00 99 1010.2
20260510040519 69 0 0.0 0.0 0.00 0.00 0.00 99 1010.3
20260510040014 69 66 0.0 1.0 0.00 0.00 0.00 99 1010.3
20260510035512 69 74 0.0 0.0 0.00 0.00 0.00 99 1010.2
20260510035010 69 74 0.0 1.0 0.00 0.00 0.00 98 1010.0
20260510034510 69 90 0.0 0.0 0.00 0.00 0.00 98 1009.9
20260510034006 69 90 0.0 0.0 0.00 0.00 0.00 98 1009.6
20260510033503 69 90 0.0 0.0 0.00 0.00 0.00 98 1009.6
20260510033001 69 90 0.0 0.0 0.00 0.00 0.00 98 1009.8
20260510032457 70 90 0.0 0.0 0.00 0.00 0.00 98 1009.4
20260510031957 70 15 0.0 0.0 0.00 0.00 0.00 98 1009.3
20260510031453 70 15 0.0 0.0 0.00 0.00 0.00 98 1009.5
20260510030949 70 15 0.0 0.0 0.00 0.00 0.00 97 1009.1
20260510030444 70 15 0.0 1.0 0.00 0.00 0.00 97 1009.4
20260510025942 70 90 1.0 3.0 0.00 0.00 0.00 97 1009.3
20260510025439 71 234 1.0 2.0 0.00 0.00 0.00 96 1009.2
20260510024937 71 99 0.0 0.0 0.00 0.00 0.00 95 1009.1
20260510024433 71 99 0.0 1.0 0.00 0.00 0.00 95 1009.3
20260510023929 71 71 1.0 2.0 0.00 0.00 0.00 94 1009.0
20260510023425 71 66 0.0 0.0 0.00 0.00 0.00 93 1009.0
20260510022923 72 66 0.0 2.0 0.00 0.00 0.00 93 1009.0
20260510022421 72 63 0.0 2.0 0.00 0.00 0.00 93 1008.9
20260510021921 72 345 0.0 1.0 0.00 0.00 0.00 92 1008.9
20260510021419 72 7 0.0 1.0 0.00 0.00 0.00 92 1008.8
20260510020915 73 90 0.0 0.0 0.00 0.00 0.00 91 1008.9
20260510020410 73 90 0.0 0.0 0.00 0.00 0.00 90 1008.7
20260510015906 73 66 0.0 0.0 0.00 0.00 0.00 89 1008.6
20260510015402 74 66 0.0 0.0 0.00 0.00 0.00 89 1008.5
20260510014857 74 74 0.0 2.0 0.00 0.00 0.00 89 1008.4
20260510014355 75 286 0.0 2.0 0.00 0.00 0.00 88 1008.3
20260510013851 75 270 0.0 0.0 0.00 0.00 0.00 86 1008.3
20260510013347 76 234 0.0 1.0 0.00 0.00 0.00 86 1008.0
20260510012841 76 206 0.0 0.0 0.00 0.00 0.00 86 1008.1
20260510012336 76 209 0.0 3.0 0.00 0.00 0.00 86 1008.1
20260510011831 77 195 0.0 1.0 0.00 0.00 0.00 85 1008.3
20260510011326 77 29 0.0 2.0 0.00 0.00 0.00 84 1008.1
20260510010823 77 98 0.0 1.0 0.00 0.00 0.00 85 1007.9
20260510010321 78 147 0.0 2.0 0.00 0.00 0.00 84 1007.8
20260510005817 79 90 0.0 0.0 0.00 0.00 0.00 82 1007.8
20260510005313 80 270 0.0 0.0 0.00 0.00 0.00 79 1007.8
20260510004811 81 279 1.0 2.0 0.00 0.00 0.00 78 1008.0
20260510004308 81 249 0.0 0.0 0.00 0.00 0.00 77 1007.7
20260510003806 81 249 0.0 1.0 0.00 0.00 0.00 76 1007.7
20260510003303 81 209 0.0 3.0 0.00 0.00 0.00 76 1007.7
20260510002801 82 225 3.0 3.0 0.00 0.00 0.00 75 1007.7
20260510002259 83 215 3.0 5.0 0.00 0.00 0.00 73 1007.6
20260510001755 84 259 2.0 3.0 0.00 0.00 0.00 73 1007.7
20260510001254 84 156 2.0 2.0 0.00 0.00 0.00 71 1007.6
20260510000749 84 209 1.0 3.0 0.00 0.00 0.00 71 1007.8
20260510000248 84 206 3.0 4.0 0.00 0.00 0.00 71 1007.6
20260509235744 84 161 0.0 5.0 0.00 0.00 0.00 70 1007.6
20260509235240 84 234 1.0 6.0 0.00 0.00 0.00 71 1007.8
20260509234736 84 207 4.0 6.0 0.00 0.00 0.00 70 1007.8
20260509234233 84 212 3.0 10.0 0.00 0.00 0.00 71 1007.6
20260509233731 88 225 3.0 7.0 0.00 0.00 0.00 72 1007.6
20260509233228 88 79 2.0 4.0 0.00 0.00 0.00 73 1007.5
20260509232724 88 180 0.0 4.0 0.00 0.00 0.00 73 1007.4
20260509232222 88 84 2.0 3.0 0.00 0.00 0.00 75 1007.6
20260509231718 88 95 4.0 6.0 0.00 0.00 0.00 74 1007.7
20260509231215 90 103 1.0 3.0 0.00 0.00 0.00 73 1007.4
20260509230713 89 157 0.0 4.0 0.00 0.00 0.00 74 1007.2
20260509230209 89 99 3.0 5.0 0.00 0.00 0.00 73 1007.2
20260509225705 91 95 2.0 3.0 0.00 0.00 0.00 71 1007.1
20260509225201 91 150 0.0 2.0 0.00 0.00 0.00 70 1007.3
20260509224656 89 74 0.0 0.0 0.00 0.00 0.00 70 1007.1
20260509224154 91 62 6.0 6.0 0.00 0.00 0.00 70 1006.9
20260509223650 90 0 2.0 4.0 0.00 0.00 0.00 71 1007.3
20260509223148 90 352 0.0 0.0 0.00 0.00 0.00 70 1006.9